DLH99M LEAL-EDDF

Flight info

Callsign DLH99M
Flight time 2h 35m
Altitude 36000
Route MITOS N851 PTC DCT CDP DCT CHELY/N0447F380 DCT LUMAS DCT MAXIR DCT LUSOL DCT BODRU DCT OKTET DCT IRMAR DCT KINES DCT VANAS DCT ESOKO DCT GODRA/N0417F330 DCT LADOL/N0440F380 T163 EMPAX EMPAX5C
Aircraft A320/M-SDE2E3FGIJ1LORWXYZ/HB1

Departure

Time 2026-04-14 11:37
Airport Alicante-Elche Miguel Hernández Airport (LEAL)

Arrival

Time 2026-04-14 14:12
Airport Frankfurt Main Airport (EDDF)
Time Latitude Longitude Altitude Speed Heading
2026-04-14 11:03 38.28507 -0.55121 88 ft 0 kts
2026-04-14 11:29 38.28491 -0.55124 89 ft 4 kts
2026-04-14 11:29 38.28465 -0.55128 91 ft 4 kts
2026-04-14 11:29 38.28440 -0.55125 88 ft 4 kts 328°
2026-04-14 11:30 38.28426 -0.55101 89 ft 4 kts 278°
2026-04-14 11:30 38.28424 -0.55068 91 ft 4 kts 274°
2026-04-14 11:30 38.28422 -0.55041 89 ft 3 kts 276°
2026-04-14 11:30 38.28422 -0.55035 88 ft 1 kts 276°
2026-04-14 11:32 38.28423 -0.55045 89 ft 4 kts 276°
2026-04-14 11:32 38.28417 -0.55111 90 ft 11 kts 246°
2026-04-14 11:33 38.28355 -0.55203 88 ft 14 kts 214°
2026-04-14 11:33 38.28304 -0.55175 87 ft 14 kts 112°
2026-04-14 11:33 38.28279 -0.54996 75 ft 17 kts 99°
2026-04-14 11:34 38.28229 -0.54617 65 ft 26 kts 100°
2026-04-14 11:34 38.28202 -0.54410 60 ft 24 kts 99°
2026-04-14 11:34 38.28172 -0.54223 56 ft 16 kts 101°
2026-04-14 11:34 38.28148 -0.54117 52 ft 11 kts 129°
2026-04-14 11:35 38.28084 -0.54110 53 ft 8 kts 192°
2026-04-14 11:35 38.28024 -0.54126 51 ft 9 kts 192°
2026-04-14 11:35 38.27984 -0.54162 52 ft 6 kts 259°
2026-04-14 11:35 38.27989 -0.54188 53 ft 1 kts 282°
2026-04-14 11:36 38.28003 -0.54281 57 ft 39 kts 281°
2026-04-14 11:36 38.28100 -0.54930 72 ft 107 kts 279°
2026-04-14 11:36 38.28268 -0.56089 113 ft 157 kts 284°
2026-04-14 11:36 38.28490 -0.57489 700 ft 161 kts 283°
2026-04-14 11:37 38.28716 -0.58883 1402 ft 164 kts 285°
2026-04-14 11:37 38.28969 -0.60389 1774 ft 185 kts 285°
2026-04-14 11:37 38.29254 -0.62087 2076 ft 209 kts 284°
2026-04-14 11:37 38.29567 -0.63982 2640 ft 225 kts 284°
2026-04-14 11:38 38.29884 -0.65943 3497 ft 227 kts 284°
2026-04-14 11:38 38.30199 -0.67913 4363 ft 229 kts 284°
2026-04-14 11:38 38.30515 -0.69892 5263 ft 230 kts 284°
2026-04-14 11:38 38.30835 -0.71897 6089 ft 233 kts 285°
2026-04-14 11:39 38.31157 -0.73925 6903 ft 236 kts 286°
2026-04-14 11:39 38.31471 -0.75899 7660 ft 237 kts 286°
2026-04-14 11:39 38.31641 -0.78090 8492 ft 246 kts 272°
2026-04-14 11:39 38.31302 -0.80262 9295 ft 257 kts 255°
2026-04-14 11:40 38.30412 -0.82282 10098 ft 269 kts 236°
2026-04-14 11:40 38.29000 -0.83905 10821 ft 280 kts 215°
2026-04-14 11:40 38.27188 -0.84878 11494 ft 290 kts 193°
2026-04-14 11:40 38.25170 -0.84989 12202 ft 293 kts 171°
2026-04-14 11:41 38.23266 -0.84229 12877 ft 293 kts 148°
2026-04-14 11:41 38.21668 -0.82665 13582 ft 289 kts 126°
2026-04-14 11:41 38.20606 -0.80530 14215 ft 283 kts 104°
2026-04-14 11:41 38.20184 -0.78138 14849 ft 274 kts 84°
2026-04-14 11:42 38.20392 -0.75777 15493 ft 267 kts 66°
2026-04-14 11:42 38.21083 -0.73604 16100 ft 266 kts 60°
2026-04-14 11:42 38.21821 -0.71433 16753 ft 269 kts 60°
2026-04-14 11:42 38.22554 -0.69229 17410 ft 272 kts 62°
2026-04-14 11:43 38.23053 -0.66819 17692 ft 299 kts 79°
2026-04-14 11:43 38.23025 -0.64065 17832 ft 324 kts 86°
2026-04-14 11:43 38.22948 -0.61113 17973 ft 343 kts 86°
2026-04-14 11:43 38.22876 -0.57998 18129 ft 361 kts 86°
2026-04-14 11:44 38.22805 -0.54769 18541 ft 369 kts 86°
2026-04-14 11:44 38.22630 -0.51486 19045 ft 379 kts 95°
2026-04-14 11:44 38.21749 -0.48270 19559 ft 394 kts 113°
2026-04-14 11:44 38.20196 -0.45347 20064 ft 402 kts 119°
2026-04-14 11:45 38.19006 -0.42204 20547 ft 390 kts 96°
2026-04-14 11:45 38.18910 -0.38855 21008 ft 374 kts 71°
2026-04-14 11:45 38.19898 -0.35910 21500 ft 357 kts 47°
2026-04-14 11:45 38.21733 -0.33909 22022 ft 345 kts 23°
2026-04-14 11:46 38.23943 -0.32728 22566 ft 345 kts 19°
2026-04-14 11:46 38.26175 -0.31598 23125 ft 346 kts 19°
2026-04-14 11:46 38.28415 -0.30464 23664 ft 347 kts 19°
2026-04-14 11:46 38.30663 -0.29328 24109 ft 348 kts 19°
2026-04-14 11:47 38.32923 -0.28200 24549 ft 349 kts 17°
2026-04-14 11:47 38.35168 -0.27116 24965 ft 352 kts 22°
2026-04-14 11:47 38.37147 -0.25237 25356 ft 366 kts 44°
2026-04-14 11:47 38.38563 -0.22478 25749 ft 378 kts 55°
2026-04-14 11:48 38.39640 -0.19376 26139 ft 386 kts 60°
2026-04-14 11:48 38.40541 -0.16130 26519 ft 391 kts 63°
2026-04-14 11:48 38.41405 -0.12832 26906 ft 393 kts 62°
2026-04-14 11:48 38.42307 -0.09543 27285 ft 393 kts 61°
2026-04-14 11:49 38.43275 -0.06277 27659 ft 394 kts 59°
2026-04-14 11:49 38.44307 -0.03038 28026 ft 394 kts 58°
2026-04-14 11:49 38.45381 0.00188 28441 ft 396 kts 58°
2026-04-14 11:49 38.46467 0.03425 28795 ft 398 kts 58°
2026-04-14 11:50 38.47549 0.06690 29146 ft 401 kts 58°
2026-04-14 11:50 38.48276 0.08910 29391 ft 402 kts 59°
2026-04-14 11:50 38.49346 0.12214 29752 ft 404 kts 59°
2026-04-14 11:51 38.51480 0.18888 30405 ft 408 kts 59°
2026-04-14 11:51 38.52548 0.22250 30670 ft 409 kts 59°
2026-04-14 11:51 38.53620 0.25622 30949 ft 411 kts 59°
2026-04-14 11:51 38.54696 0.29003 31221 ft 412 kts 58°
2026-04-14 11:52 38.55777 0.32395 31496 ft 413 kts 58°
2026-04-14 11:52 38.56858 0.35790 31873 ft 411 kts 58°
2026-04-14 11:52 38.57915 0.39118 32316 ft 409 kts 59°
2026-04-14 11:52 38.58983 0.42487 32674 ft 409 kts 59°
2026-04-14 11:53 38.60047 0.45851 33046 ft 407 kts 58°
2026-04-14 11:53 38.61106 0.49207 33429 ft 406 kts 58°
2026-04-14 11:53 38.62161 0.52544 33808 ft 404 kts 58°
2026-04-14 11:53 38.63214 0.55874 34184 ft 403 kts 58°
2026-04-14 11:54 38.64265 0.59191 34481 ft 402 kts 58°
2026-04-14 11:54 38.65316 0.62513 34729 ft 403 kts 58°
2026-04-14 11:54 38.66365 0.65841 34949 ft 404 kts 59°
2026-04-14 11:54 38.67414 0.69173 35183 ft 404 kts 59°
2026-04-14 11:55 38.68463 0.72514 35400 ft 405 kts 59°
2026-04-14 11:55 38.69512 0.75858 35609 ft 406 kts 59°
2026-04-14 11:55 38.70566 0.79217 35811 ft 408 kts 60°
2026-04-14 11:55 38.71626 0.82601 35937 ft 411 kts 60°
2026-04-14 11:56 38.72690 0.86002 36086 ft 413 kts 60°
2026-04-14 11:56 38.73752 0.89403 36129 ft 410 kts 60°
2026-04-14 11:56 38.75863 0.96164 36128 ft 408 kts 60°
2026-04-14 11:57 38.77954 1.02903 36122 ft 408 kts 60°
2026-04-14 11:57 38.80043 1.09668 36116 ft 408 kts 60°
2026-04-14 11:58 38.82136 1.16430 36146 ft 408 kts 60°
2026-04-14 11:58 38.84235 1.23212 36111 ft 410 kts 60°
2026-04-14 11:59 38.86330 1.30016 36104 ft 411 kts 60°
2026-04-14 11:59 38.88422 1.36842 36103 ft 411 kts 61°
2026-04-14 12:00 38.90513 1.43675 36121 ft 411 kts 60°
2026-04-14 12:00 38.92596 1.50516 36122 ft 411 kts 61°
2026-04-14 12:01 38.94630 1.57388 36126 ft 412 kts 62°
2026-04-14 12:01 38.96645 1.64267 36119 ft 411 kts 62°
2026-04-14 12:02 38.98663 1.71152 36114 ft 412 kts 62°
2026-04-14 12:02 39.00682 1.78042 36114 ft 412 kts 62°
2026-04-14 12:03 39.02700 1.84935 36114 ft 412 kts 62°
2026-04-14 12:03 39.04709 1.91833 36146 ft 412 kts 63°
2026-04-14 12:04 39.06723 1.98746 36120 ft 413 kts 63°
2026-04-14 12:04 39.08735 2.05684 36110 ft 414 kts 63°
2026-04-14 12:05 39.10749 2.12625 36105 ft 414 kts 63°
2026-04-14 12:05 39.12761 2.19588 36102 ft 415 kts 63°
2026-04-14 12:06 39.14762 2.26561 36103 ft 415 kts 63°
2026-04-14 12:06 39.16766 2.33537 36120 ft 416 kts 64°
2026-04-14 12:07 39.18771 2.40540 36108 ft 417 kts 64°
2026-04-14 12:07 39.20771 2.47552 36095 ft 417 kts 64°
2026-04-14 12:08 39.22773 2.54570 36098 ft 417 kts 64°
2026-04-14 12:08 39.24756 2.61548 36095 ft 417 kts 64°
2026-04-14 12:09 39.26743 2.68581 36124 ft 417 kts 64°
2026-04-14 12:09 39.28736 2.75628 36088 ft 419 kts 64°
2026-04-14 12:10 39.30736 2.82697 36077 ft 420 kts 64°
2026-04-14 12:10 39.32734 2.89787 36081 ft 420 kts 65°
2026-04-14 12:11 39.34715 2.96867 36098 ft 419 kts 65°
2026-04-14 12:11 39.36696 3.03952 36104 ft 419 kts 65°
2026-04-14 12:12 39.38674 3.11033 36117 ft 419 kts 66°
2026-04-14 12:12 39.40648 3.18130 36103 ft 420 kts 65°
2026-04-14 12:13 39.43549 3.24522 36097 ft 409 kts 45°
2026-04-14 12:13 39.47924 3.29065 36090 ft 403 kts 26°
2026-04-14 12:14 39.52923 3.32336 36087 ft 403 kts 25°
2026-04-14 12:14 39.57924 3.35622 36092 ft 403 kts 25°
2026-04-14 12:15 39.62924 3.38920 36096 ft 403 kts 25°
2026-04-14 12:15 39.67923 3.42216 36099 ft 403 kts 25°
2026-04-14 12:16 39.72870 3.45632 36103 ft 403 kts 28°
2026-04-14 12:16 39.77664 3.49313 36103 ft 403 kts 29°
2026-04-14 12:17 39.82462 3.53063 36112 ft 402 kts 29°
2026-04-14 12:17 39.87267 3.56769 36112 ft 401 kts 28°
2026-04-14 12:18 39.92082 3.60438 36117 ft 401 kts 28°
2026-04-14 12:18 39.96894 3.64103 36120 ft 401 kts 28°
2026-04-14 12:19 40.01697 3.67784 36117 ft 400 kts 28°
2026-04-14 12:19 40.06485 3.71471 36125 ft 399 kts 28°
2026-04-14 12:20 40.11268 3.75148 36118 ft 399 kts 28°
2026-04-14 12:20 40.16045 3.78837 36117 ft 399 kts 28°
2026-04-14 12:21 40.20828 3.82523 36116 ft 399 kts 29°
2026-04-14 12:21 40.25623 3.86225 36095 ft 401 kts 29°
2026-04-14 12:22 40.30427 3.89948 36096 ft 401 kts 29°
2026-04-14 12:22 40.35234 3.93672 36092 ft 402 kts 29°
2026-04-14 12:23 40.40050 3.97409 36089 ft 402 kts 29°
2026-04-14 12:23 40.44860 4.01149 36088 ft 402 kts 28°
2026-04-14 12:24 40.49627 4.04868 36090 ft 401 kts 29°
2026-04-14 12:24 40.54418 4.08615 36095 ft 400 kts 29°
2026-04-14 12:25 40.59205 4.12361 36087 ft 400 kts 29°
2026-04-14 12:25 40.63982 4.16107 36090 ft 400 kts 29°
2026-04-14 12:26 40.68760 4.19855 36104 ft 400 kts 29°
2026-04-14 12:26 40.73551 4.23621 36069 ft 402 kts 29°
2026-04-14 12:27 40.78353 4.27411 36055 ft 403 kts 29°
2026-04-14 12:27 40.83170 4.31211 36055 ft 404 kts 29°
2026-04-14 12:28 40.87992 4.35017 36054 ft 404 kts 29°
2026-04-14 12:28 40.92809 4.38827 36055 ft 404 kts 29°
2026-04-14 12:29 40.97630 4.42649 36054 ft 404 kts 29°
2026-04-14 12:29 41.02444 4.46473 36058 ft 405 kts 29°
2026-04-14 12:30 41.04867 4.48400 36160 ft 408 kts 29°
2026-04-14 12:30 41.07381 4.50112 36392 ft 405 kts 19°
2026-04-14 12:30 41.10084 4.51135 36621 ft 404 kts 10°
2026-04-14 12:30 41.12851 4.51809 36816 ft 405 kts 10°
2026-04-14 12:31 41.15619 4.52481 37050 ft 404 kts 10°
2026-04-14 12:31 41.18388 4.53154 37239 ft 405 kts 10°
2026-04-14 12:31 41.21157 4.53828 37458 ft 405 kts 10°
2026-04-14 12:31 41.23929 4.54500 37662 ft 405 kts 10°
2026-04-14 12:32 41.26703 4.55174 37843 ft 405 kts 10°
2026-04-14 12:32 41.29435 4.55843 38031 ft 405 kts 10°
2026-04-14 12:32 41.34977 4.57206 38051 ft 404 kts 10°
2026-04-14 12:33 41.40514 4.58570 38047 ft 406 kts 10°
2026-04-14 12:33 41.46054 4.59933 38044 ft 406 kts 10°
2026-04-14 12:34 41.51591 4.61289 38038 ft 404 kts 10°
2026-04-14 12:34 41.57146 4.62655 38061 ft 406 kts 10°
2026-04-14 12:35 41.62697 4.64032 38056 ft 405 kts 10°
2026-04-14 12:35 41.68235 4.65403 38049 ft 405 kts 10°
2026-04-14 12:36 41.73688 4.67199 38046 ft 405 kts 22°
2026-04-14 12:36 41.78607 4.70900 38040 ft 406 kts 28°
2026-04-14 12:37 41.83451 4.74798 38032 ft 406 kts 29°
2026-04-14 12:37 41.88298 4.78698 38030 ft 406 kts 29°
2026-04-14 12:38 41.94792 4.83917 38025 ft 407 kts 28°
2026-04-14 12:39 41.99638 4.87842 38025 ft 407 kts 28°
2026-04-14 12:39 42.04458 4.91745 38014 ft 407 kts 29°
2026-04-14 12:40 42.09307 4.95678 38030 ft 407 kts 29°
2026-04-14 12:40 42.14165 4.99625 38024 ft 408 kts 29°
2026-04-14 12:41 42.19035 5.03585 38006 ft 409 kts 29°
2026-04-14 12:41 42.23908 5.07555 38002 ft 409 kts 29°
2026-04-14 12:42 42.28782 5.11545 38011 ft 410 kts 30°
2026-04-14 12:42 42.33656 5.15532 37993 ft 410 kts 30°
2026-04-14 12:43 42.38534 5.19523 37986 ft 410 kts 29°
2026-04-14 12:43 42.43408 5.23531 37993 ft 410 kts 29°
2026-04-14 12:44 42.48280 5.27551 37989 ft 410 kts 29°
2026-04-14 12:44 42.53154 5.31569 37975 ft 410 kts 29°
2026-04-14 12:45 42.60482 5.37609 37960 ft 412 kts 29°
2026-04-14 12:45 42.65319 5.41618 37955 ft 413 kts 30°
2026-04-14 12:46 42.70222 5.45695 37953 ft 413 kts 30°
2026-04-14 12:46 42.75134 5.49780 37951 ft 414 kts 30°
2026-04-14 12:47 42.80052 5.53875 37970 ft 414 kts 30°
2026-04-14 12:47 42.84975 5.57976 37967 ft 415 kts 30°
2026-04-14 12:48 42.89899 5.62094 37946 ft 415 kts 30°
2026-04-14 12:48 42.94826 5.66227 37936 ft 416 kts 30°
2026-04-14 12:49 42.99732 5.70343 37932 ft 417 kts 30°
2026-04-14 12:49 43.04679 5.74498 37933 ft 418 kts 30°
2026-04-14 12:50 43.12126 5.80774 37927 ft 420 kts 30°
2026-04-14 12:51 43.17096 5.84978 37934 ft 420 kts 30°
2026-04-14 12:51 43.22062 5.89185 37952 ft 420 kts 30°
2026-04-14 12:52 43.27032 5.93409 37958 ft 420 kts 30°
2026-04-14 12:52 43.32001 5.97634 37952 ft 420 kts 30°
2026-04-14 12:53 43.36983 6.01809 37927 ft 419 kts 26°
2026-04-14 12:53 43.42473 6.04291 37916 ft 416 kts
2026-04-14 12:54 43.48247 6.04931 37907 ft 416 kts
2026-04-14 12:54 43.54024 6.05513 37921 ft 416 kts
2026-04-14 12:55 43.59797 6.06095 37906 ft 416 kts
2026-04-14 12:55 43.65572 6.06671 37917 ft 416 kts
2026-04-14 12:56 43.71353 6.07249 37904 ft 416 kts
2026-04-14 12:56 43.77088 6.08262 37911 ft 417 kts 15°
2026-04-14 12:57 43.82413 6.11430 37902 ft 418 kts 25°
2026-04-14 12:57 43.87640 6.15003 37891 ft 419 kts 25°
2026-04-14 12:58 43.92886 6.18570 37891 ft 420 kts 25°
2026-04-14 12:58 43.98138 6.22149 37895 ft 421 kts 25°
2026-04-14 12:59 44.03385 6.25744 37895 ft 421 kts 25°
2026-04-14 12:59 44.08640 6.29355 37899 ft 421 kts 25°
2026-04-14 13:00 44.13855 6.32941 37909 ft 421 kts 25°
2026-04-14 13:00 44.19123 6.36571 37910 ft 421 kts 25°
2026-04-14 13:01 44.24324 6.40161 37917 ft 421 kts 25°
2026-04-14 13:01 44.29538 6.43766 37929 ft 421 kts 25°
2026-04-14 13:02 44.34761 6.47384 37923 ft 421 kts 25°
2026-04-14 13:02 44.39961 6.51000 37908 ft 422 kts 25°
2026-04-14 13:03 44.45214 6.54658 37909 ft 423 kts 25°
2026-04-14 13:03 44.50484 6.58327 37918 ft 423 kts 25°
2026-04-14 13:04 44.55754 6.61997 37923 ft 424 kts 25°
2026-04-14 13:04 44.61020 6.65687 37933 ft 423 kts 25°
2026-04-14 13:05 44.66285 6.69382 37960 ft 424 kts 25°
2026-04-14 13:05 44.71552 6.73089 37956 ft 423 kts 25°
2026-04-14 13:06 44.76826 6.76773 37957 ft 423 kts 22°
2026-04-14 13:06 44.82491 6.78732 37957 ft 420 kts
2026-04-14 13:07 44.88327 6.78501 37957 ft 421 kts 357°
2026-04-14 13:07 44.94181 6.78112 37962 ft 421 kts 357°
2026-04-14 13:08 45.00033 6.77730 37969 ft 421 kts 357°
2026-04-14 13:08 45.05885 6.77340 37980 ft 422 kts 357°
2026-04-14 13:09 45.11745 6.76949 37989 ft 422 kts 357°
2026-04-14 13:09 45.17598 6.76561 37996 ft 422 kts 357°
2026-04-14 13:10 45.23465 6.76172 38009 ft 422 kts 357°
2026-04-14 13:10 45.29317 6.75787 38019 ft 422 kts 357°
2026-04-14 13:11 45.35143 6.75388 38042 ft 422 kts 357°
2026-04-14 13:11 45.40995 6.74998 38025 ft 422 kts 358°
2026-04-14 13:12 45.46816 6.76163 38027 ft 422 kts 18°
2026-04-14 13:12 45.52064 6.79940 38027 ft 424 kts 29°
2026-04-14 13:13 45.57166 6.84175 38036 ft 425 kts 28°
2026-04-14 13:13 45.62260 6.88400 38035 ft 425 kts 28°
2026-04-14 13:14 45.67365 6.92651 38016 ft 425 kts 29°
2026-04-14 13:14 45.72469 6.96912 38006 ft 425 kts 29°
2026-04-14 13:15 45.77578 7.01175 38011 ft 425 kts 28°
2026-04-14 13:15 45.82683 7.05454 38016 ft 426 kts 29°
2026-04-14 13:16 45.87792 7.09753 38015 ft 426 kts 29°
2026-04-14 13:16 45.92893 7.14054 38009 ft 426 kts 29°
2026-04-14 13:17 45.98010 7.18368 38060 ft 427 kts 29°
2026-04-14 13:17 46.03092 7.22669 38086 ft 428 kts 29°
2026-04-14 13:18 46.08224 7.27035 38102 ft 428 kts 29°
2026-04-14 13:18 46.13342 7.31382 38117 ft 429 kts 29°
2026-04-14 13:19 46.18483 7.35756 38114 ft 429 kts 29°
2026-04-14 13:19 46.23598 7.40136 38115 ft 429 kts 29°
2026-04-14 13:20 46.28720 7.44532 38111 ft 429 kts 29°
2026-04-14 13:20 46.33851 7.48925 38108 ft 428 kts 29°
2026-04-14 13:21 46.38981 7.53329 38094 ft 429 kts 29°
2026-04-14 13:21 46.44084 7.57727 38092 ft 428 kts 29°
2026-04-14 13:22 46.49205 7.62152 38104 ft 428 kts 29°
2026-04-14 13:22 46.54323 7.66577 38106 ft 428 kts 29°
2026-04-14 13:23 46.59439 7.71007 38136 ft 428 kts 29°
2026-04-14 13:23 46.63764 7.74515 38142 ft 428 kts 26°
2026-04-14 13:24 46.69949 7.79149 38151 ft 428 kts 26°
2026-04-14 13:24 46.76980 7.84439 38163 ft 428 kts 26°
2026-04-14 13:25 46.82248 7.88497 38167 ft 428 kts 26°
2026-04-14 13:26 46.92769 7.96661 38174 ft 429 kts 26°
2026-04-14 13:26 46.98038 8.00750 38189 ft 429 kts 26°
2026-04-14 13:27 47.03310 8.04850 38191 ft 429 kts 26°
2026-04-14 13:27 47.08576 8.08954 38196 ft 429 kts 26°
2026-04-14 13:28 47.13843 8.13075 38173 ft 429 kts 26°
2026-04-14 13:28 47.19108 8.17196 38175 ft 429 kts 26°
2026-04-14 13:29 47.24372 8.21327 38176 ft 429 kts 26°
2026-04-14 13:29 47.29631 8.25466 38176 ft 429 kts 26°
2026-04-14 13:30 47.34903 8.29618 38180 ft 429 kts 26°
2026-04-14 13:30 47.40160 8.33762 38182 ft 430 kts 27°
2026-04-14 13:31 47.45437 8.37940 38169 ft 431 kts 27°
2026-04-14 13:31 47.50706 8.42124 38178 ft 432 kts 27°
2026-04-14 13:32 47.55999 8.46340 38190 ft 433 kts 27°
2026-04-14 13:32 47.61291 8.50576 38190 ft 433 kts 27°
2026-04-14 13:33 47.66596 8.54817 38193 ft 433 kts 27°
2026-04-14 13:33 47.71908 8.59058 38193 ft 433 kts 27°
2026-04-14 13:34 47.79858 8.65452 38182 ft 434 kts 27°
2026-04-14 13:35 47.85139 8.69715 38183 ft 433 kts 27°
2026-04-14 13:35 47.90435 8.73997 38183 ft 433 kts 27°
2026-04-14 13:36 47.95750 8.78306 38187 ft 434 kts 27°
2026-04-14 13:36 48.01044 8.82595 38187 ft 434 kts 27°
2026-04-14 13:37 48.06349 8.86900 38186 ft 434 kts 27°
2026-04-14 13:37 48.11643 8.91216 38179 ft 434 kts 27°
2026-04-14 13:38 48.17107 8.95032 37173 ft 440 kts 14°
2026-04-14 13:38 48.20126 8.95883 36437 ft 440 kts
2026-04-14 13:38 48.23131 8.96248 36060 ft 433 kts
2026-04-14 13:38 48.26125 8.96670 35500 ft 431 kts
2026-04-14 13:39 48.29095 8.97133 34960 ft 428 kts
2026-04-14 13:39 48.32046 8.97609 34387 ft 427 kts
2026-04-14 13:39 48.34999 8.98090 33747 ft 426 kts
2026-04-14 13:39 48.37921 8.98558 33166 ft 422 kts
2026-04-14 13:40 48.40838 8.99013 32586 ft 419 kts
2026-04-14 13:40 48.43733 8.99453 32018 ft 417 kts
2026-04-14 13:40 48.46607 8.99886 31447 ft 415 kts
2026-04-14 13:40 48.49477 9.00321 30882 ft 414 kts
2026-04-14 13:41 48.52337 9.00756 30330 ft 412 kts
2026-04-14 13:41 48.55109 9.01177 29729 ft 410 kts
2026-04-14 13:41 48.57923 9.01607 29190 ft 406 kts
2026-04-14 13:41 48.60719 9.02037 28650 ft 402 kts
2026-04-14 13:42 48.63494 9.02472 28117 ft 399 kts
2026-04-14 13:42 48.66235 9.03014 27603 ft 396 kts
2026-04-14 13:42 48.68937 9.03648 27089 ft 393 kts
2026-04-14 13:42 48.71620 9.04332 26603 ft 390 kts
2026-04-14 13:43 48.74285 9.05025 26115 ft 387 kts
2026-04-14 13:43 48.76928 9.05703 25655 ft 383 kts
2026-04-14 13:43 48.79551 9.06356 25193 ft 381 kts
2026-04-14 13:43 48.82158 9.06988 24737 ft 378 kts
2026-04-14 13:44 48.84751 9.07608 24282 ft 376 kts
2026-04-14 13:44 48.87326 9.08219 23825 ft 374 kts
2026-04-14 13:44 48.89895 9.08772 23310 ft 372 kts
2026-04-14 13:44 48.92446 9.09186 22851 ft 368 kts
2026-04-14 13:45 48.94981 9.09522 22396 ft 366 kts
2026-04-14 13:45 48.97498 9.09830 21937 ft 364 kts
2026-04-14 13:45 48.99997 9.10138 21466 ft 362 kts
2026-04-14 13:45 49.02489 9.10461 21009 ft 360 kts
2026-04-14 13:46 49.04869 9.10783 20558 ft 359 kts
2026-04-14 13:46 49.07351 9.11134 20090 ft 358 kts
2026-04-14 13:46 49.09819 9.11491 19625 ft 357 kts
2026-04-14 13:46 49.12285 9.11850 19165 ft 356 kts
2026-04-14 13:47 49.14755 9.12209 18703 ft 356 kts
2026-04-14 13:47 49.17182 9.12558 18231 ft 355 kts
2026-04-14 13:47 49.19625 9.12905 17757 ft 353 kts
2026-04-14 13:47 49.22059 9.13251 17308 ft 350 kts
2026-04-14 13:48 49.24473 9.13601 16863 ft 348 kts
2026-04-14 13:48 49.26870 9.13948 16431 ft 346 kts
2026-04-14 13:48 49.29242 9.14466 15988 ft 345 kts 12°
2026-04-14 13:48 49.31581 9.15294 15508 ft 345 kts 12°
2026-04-14 13:49 49.33921 9.16121 15030 ft 345 kts 12°
2026-04-14 13:49 49.36261 9.16864 14644 ft 341 kts
2026-04-14 13:49 49.38594 9.16719 14407 ft 335 kts 348°
2026-04-14 13:49 49.40888 9.16117 14168 ft 334 kts 348°
2026-04-14 13:50 49.43172 9.15509 13927 ft 332 kts 348°
2026-04-14 13:50 49.45438 9.14903 13658 ft 331 kts 348°
2026-04-14 13:50 49.47698 9.14289 13391 ft 330 kts 348°
2026-04-14 13:50 49.49957 9.13673 13126 ft 329 kts 348°
2026-04-14 13:51 49.52204 9.13059 12872 ft 328 kts 348°
2026-04-14 13:51 49.54449 9.12494 12608 ft 326 kts 350°
2026-04-14 13:51 49.56692 9.11977 12349 ft 326 kts 349°
2026-04-14 13:51 49.58931 9.11478 12092 ft 325 kts 350°
2026-04-14 13:52 49.61163 9.10985 11838 ft 324 kts 351°
2026-04-14 13:52 49.63390 9.10489 11588 ft 322 kts 351°
2026-04-14 13:52 49.65600 9.09988 11336 ft 321 kts 350°
2026-04-14 13:52 49.67808 9.09481 11090 ft 321 kts 349°
2026-04-14 13:53 49.70015 9.08970 10840 ft 320 kts 350°
2026-04-14 13:53 49.72212 9.08463 10600 ft 319 kts 350°
2026-04-14 13:53 49.74401 9.07962 10352 ft 317 kts 350°
2026-04-14 13:53 49.76577 9.07462 10116 ft 314 kts 350°
2026-04-14 13:54 49.78700 9.06972 9991 ft 302 kts 351°
2026-04-14 13:54 49.80720 9.06506 9866 ft 294 kts 351°
2026-04-14 13:54 49.82734 9.06042 9726 ft 292 kts 350°
2026-04-14 13:54 49.84735 9.05582 9591 ft 290 kts 350°
2026-04-14 13:55 49.86696 9.04984 9455 ft 287 kts 342°
2026-04-14 13:55 49.88537 9.03872 9330 ft 284 kts 332°
2026-04-14 13:55 49.90212 9.02270 9197 ft 282 kts 322°
2026-04-14 13:55 49.91667 9.00233 9065 ft 281 kts 312°
2026-04-14 13:56 49.92858 8.97833 8933 ft 280 kts 302°
2026-04-14 13:56 49.93747 8.95151 8808 ft 280 kts 291°
2026-04-14 13:56 49.94340 8.92288 8678 ft 280 kts 286°
2026-04-14 13:56 49.94884 8.89394 8549 ft 279 kts 287°
2026-04-14 13:57 49.95431 8.86516 8417 ft 278 kts 287°
2026-04-14 13:57 49.95977 8.83650 8291 ft 277 kts 288°
2026-04-14 13:57 49.96522 8.80793 8184 ft 276 kts 288°
2026-04-14 13:57 49.97066 8.77929 8190 ft 277 kts 287°
2026-04-14 13:58 49.97497 8.75016 8192 ft 278 kts 279°
2026-04-14 13:58 49.97619 8.72030 8191 ft 279 kts 270°
2026-04-14 13:58 49.97419 8.69035 8193 ft 280 kts 261°
2026-04-14 13:58 49.96908 8.66115 8193 ft 281 kts 252°
2026-04-14 13:59 49.96224 8.63266 8193 ft 281 kts 251°
2026-04-14 13:59 49.95544 8.60427 8193 ft 281 kts 250°
2026-04-14 13:59 49.94859 8.57590 8193 ft 281 kts 250°
2026-04-14 13:59 49.94169 8.54747 8160 ft 280 kts 251°
2026-04-14 14:00 49.93486 8.51925 7740 ft 280 kts 251°
2026-04-14 14:00 49.92822 8.49180 7347 ft 279 kts 251°
2026-04-14 14:00 49.92119 8.46280 6933 ft 279 kts 251°
2026-04-14 14:00 49.91442 8.43472 6524 ft 278 kts 252°
2026-04-14 14:01 49.90771 8.40682 6210 ft 276 kts 252°
2026-04-14 14:01 49.90101 8.37906 6178 ft 277 kts 251°
2026-04-14 14:01 49.89428 8.35113 6188 ft 278 kts 251°
2026-04-14 14:01 49.88751 8.32304 6187 ft 279 kts 251°
2026-04-14 14:02 49.88068 8.29478 6132 ft 280 kts 251°
2026-04-14 14:02 49.87383 8.26663 6016 ft 279 kts 251°
2026-04-14 14:02 49.86697 8.23858 6003 ft 278 kts 251°
2026-04-14 14:02 49.86015 8.21056 6007 ft 279 kts 251°
2026-04-14 14:03 49.85331 8.18250 6009 ft 279 kts 251°
2026-04-14 14:03 49.84649 8.15451 6015 ft 277 kts 251°
2026-04-14 14:03 49.83968 8.12663 6005 ft 276 kts 251°
2026-04-14 14:03 49.83347 8.09863 6002 ft 274 kts 261°
2026-04-14 14:04 49.83404 8.06982 6006 ft 269 kts 289°
2026-04-14 14:04 49.84318 8.04531 6015 ft 263 kts 317°
2026-04-14 14:04 49.85824 8.03098 6020 ft 259 kts 345°
2026-04-14 14:04 49.87586 8.02924 5829 ft 254 kts 12°
2026-04-14 14:05 49.89169 8.04068 5380 ft 254 kts 38°
2026-04-14 14:05 49.90478 8.05914 5042 ft 254 kts 43°
2026-04-14 14:05 49.91719 8.07798 5004 ft 256 kts 43°
2026-04-14 14:05 49.92990 8.09755 5007 ft 257 kts 43°
2026-04-14 14:06 49.94240 8.11715 5011 ft 258 kts 47°
2026-04-14 14:06 49.95137 8.14120 5011 ft 260 kts 66°
2026-04-14 14:06 49.95750 8.16707 4982 ft 247 kts 68°
2026-04-14 14:06 49.96316 8.19119 4735 ft 231 kts 68°
2026-04-14 14:07 49.96865 8.21388 4434 ft 221 kts 67°
2026-04-14 14:07 49.97401 8.23592 4111 ft 215 kts 67°
2026-04-14 14:07 49.97916 8.25712 3809 ft 207 kts 66°
2026-04-14 14:07 49.98419 8.27784 3521 ft 206 kts 68°
2026-04-14 14:08 49.98916 8.29839 3242 ft 201 kts 66°
2026-04-14 14:08 49.99399 8.31833 2926 ft 192 kts 67°
2026-04-14 14:08 49.99854 8.33720 2651 ft 181 kts 66°
2026-04-14 14:08 50.00284 8.35497 2396 ft 171 kts 68°
2026-04-14 14:09 50.00695 8.37198 2153 ft 165 kts 68°
2026-04-14 14:09 50.01079 8.38791 1950 ft 151 kts 68°
2026-04-14 14:09 50.01433 8.40265 1715 ft 139 kts 65°
2026-04-14 14:09 50.01768 8.41651 1496 ft 135 kts 67°
2026-04-14 14:10 50.02095 8.43008 1309 ft 134 kts 67°
2026-04-14 14:10 50.02430 8.44364 1154 ft 134 kts 65°
2026-04-14 14:10 50.02756 8.45728 953 ft 135 kts 68°
2026-04-14 14:10 50.03076 8.47093 741 ft 134 kts 67°
2026-04-14 14:11 50.03409 8.48446 536 ft 136 kts 68°
2026-04-14 14:11 50.03730 8.49814 388 ft 134 kts 68°
2026-04-14 14:11 50.03942 8.50694 325 ft 124 kts 68°
2026-04-14 14:11 50.04196 8.51741 334 ft 80 kts 70°
2026-04-14 14:12 50.04343 8.52363 348 ft 48 kts 70°
2026-04-14 14:12 50.04393 8.52793 354 ft 33 kts 95°
2026-04-14 14:12 50.04354 8.53204 362 ft 24 kts 97°
2026-04-14 14:12 50.04365 8.53355 371 ft 18 kts 72°
2026-04-14 14:13 50.04394 8.53505 375 ft 12 kts 79°
2026-04-14 14:13 50.04409 8.53737 376 ft 26 kts 84°
2026-04-14 14:13 50.04429 8.54026 375 ft 27 kts 83°
2026-04-14 14:13 50.04449 8.54317 374 ft 25 kts 85°
2026-04-14 14:14 50.04435 8.54572 368 ft 23 kts 112°
2026-04-14 14:14 50.04352 8.54734 359 ft 11 kts 142°
2026-04-14 14:14 50.04308 8.54775 358 ft 9 kts 155°
2026-04-14 14:14 50.04203 8.54836 353 ft 19 kts 160°
2026-04-14 14:15 50.04080 8.54907 353 ft 18 kts 159°
2026-04-14 14:15 50.03987 8.54881 357 ft 11 kts 241°
2026-04-14 14:15 50.03932 8.54855 352 ft 9 kts 158°
2026-04-14 14:15 50.03887 8.54883 355 ft 0 kts 160°